This is the latest recevied weather packets stored in our database for station/object W0AKY-13. If no packets are shown the sender has not sent any weather packets the latest 10 day(s).
| Time | Temp. | Humidity | Pressure | Rain* | Wind** | Luminosity | Snow |
|---|---|---|---|---|---|---|---|
| 1788633921 | 37.22° C | 52% | 1016.4 hPa | 0 mm | - | 565 W/m² | - |
| 1788633619 | 36.67° C | 54% | 1016.6 hPa | 0 mm | - | 568 W/m² | - |
| 1788633314 | 36.67° C | 51% | 1016.5 hPa | 0 mm | - | 564 W/m² | - |
| 1788633009 | 36.11° C | 55% | 1017 hPa | 0 mm | - | 568 W/m² | - |
| 1788632709 | 36.11° C | 55% | 1016.9 hPa | 0 mm | - | 572 W/m² | - |
| 1788632403 | 36.67° C | 55% | 1016.7 hPa | 0 mm | - | 573 W/m² | - |
| 1788632098 | 36.11° C | 56% | 1016.4 hPa | 0 mm | - | 574 W/m² | - |
| 1788631797 | 36.11° C | 54% | 1016.6 hPa | 0 mm | - | 572 W/m² | - |
| 1788631492 | 35.56° C | 53% | 1016.6 hPa | 0 mm | - | 571 W/m² | - |
| 1788631187 | 36.11° C | 53% | 1016.6 hPa | 0 mm | - | 571 W/m² | - |
| 1788630887 | 36.11° C | 52% | 1016.6 hPa | 0 mm | - | 568 W/m² | - |
| 1788630583 | 36.11° C | 53% | 1016.8 hPa | 0 mm | - | 565 W/m² | - |
| 1788630277 | 35.56° C | 55% | 1016.8 hPa | 0 mm | - | 561 W/m² | - |
| 1788629973 | 35.56° C | 57% | 1016.9 hPa | 0 mm | - | 559 W/m² | - |
| 1788629670 | 34.44° C | 58% | 1017 hPa | 0 mm | - | 555 W/m² | - |
| 1788629365 | 35° C | 57% | 1016.9 hPa | 0 mm | - | 550 W/m² | - |
| 1788629062 | 34.44° C | 56% | 1016.9 hPa | 0 mm | - | 546 W/m² | - |
| 1788628759 | 34.44° C | 58% | 1017.1 hPa | 0 mm | - | 540 W/m² | - |
| 1788628455 | 34.44° C | 60% | 1016.8 hPa | 0 mm | - | 536 W/m² | - |
| 1788628151 | 35° C | 61% | 1016.9 hPa | 0 mm | - | 528 W/m² | - |
| 1788627847 | 34.44° C | 59% | 1016.8 hPa | 0 mm | - | 525 W/m² | - |
| 1788627546 | 33.89° C | 60% | 1016.9 hPa | 0 mm | - | 518 W/m² | - |
| 1788627241 | 34.44° C | 61% | 1016.9 hPa | 0 mm | - | 510 W/m² | - |
| 1788626936 | 34.44° C | 61% | 1016.9 hPa | 0 mm | - | 504 W/m² | - |
| 1788626631 | 34.44° C | 60% | 1016.9 hPa | 0 mm | - | 497 W/m² | - |
* Rain latest hour (hover to see other rain measurements)
** Current wind speed in m/s (hover to see current wind gust speed)